SCP
0 0 0 0 0 0 0 0 0 0 0 0 0 0 0 0 0 0 0 0 0 0 0 0 0 0 0 0 0 0 0 0 0 0 0 0 0 0
0 0 0 0 0 0 0 0 0 0 0 0 0 0 0 0 0 0 0 0 0 0 0 0 0 0 0 0 0 0 0 0 0 0 0 0 0 0
0 0 0 0 0 0 0 0 0 0 0 0 0 0 0 0 0 0 0 0 0 0 0 0 0 0 0 0 0 0 0 0 0 0 0 0 0 1
0 0 0 0 0 0 0 0 0 0 0 0 0 0 0 0 0 0 0 0 0 0 0 0 0 0 0 0 0 0 0 0 0 0 0 0 0 0
0 0 0 0 0 0 0 0 0 0 0 0 0 0 0 0 0 0 0 0 0 0 0 0 0 0 0 0 0 0 0 0 0 0 0 0 0 0
0 0 0 0 0 0 0 0 0 0 0 0 0 0 0 0 0 0 0 0 0 0 0 0 0 0 0 0 0 0 0 0 0 0 0 0 0 0
0 0 0 0 0 0 0 0 0 0 0 0 0 0 0 0 0 0 0 0 0 0 0 0 0 0 0 0 0 0 0 0 0 0 0 0 0 0
0 0 0 0 0 0 0 0 0 0 0 0 0 0 0 0 0 0 0 0 0 0 0 0 0 0 0 0 0 0 0 0 0 0 0 0 0 0
0 0 0 0 0 0 0 0 0 0 0 0 0 0 0 0 0 0 0 0 0 0 0 0 0 0 0 0 0 0 0 0 0 0 0 0 0 0
0 0 0 0 0 0 0 0 0 0 0 0 0 0 0 0 0 0 0 0 0 0 0 0 0 0 0 0 0 0 0 0 0 0 0 0 0 0
0 0 0 0 0 0 0 0 0 0 0 0 0 0 0 0 0 0 0 0 0 0 0 0 0 0 0 0 0 0 0 0 0 0 0 0 0 0
0 0 0 0 0 0 0 0 0 0 0 0 0 0 0 0 0 0 0 0 0 0 0 0 0 0 0 0 0 0 0 0 0 0 0 0 0 0
0 0 0 0 0 0 0 0 0 0 0 0 0 0 0 0 0 0 0 0 0 0 0 0 0 0 0 0 0 0 0 0 0 0 0 0 0 0
0 0 0 0 0 0 0 0 0 0 0 0 0 0 0 0 0 0 0 0 0 0 0 0 0 0 0 0 0 0 0 0 0 0 0 0 0 0
0 0 0 0 0 0 0 0 0 0 0 0 0 0 0 0 0 0 0 0 0 0 0 0 0 0 0 0 0 0 0 0 0 0 0 0 0 0
0 0 0 0 0 0 0 0 0 0 0 0 0 0 0 0 0 0 0 0 0 0 0 0 0 0 0 0 0 0 0 0 0 0 0 0 0 0
0 0 0 0 0 0 0 0 0 0 0 0 0 0 0 0 0 0 0 0 0 0 0 0 0 0 0 0 0 0 0 0 0 0 0 0 0 0
0 0 0 0 0 0 0 0 0 0 0 0 0 0 0 0 0 0 0 0 0 0 0 0 0 0 0 0 0 0 0 0 0 0 0 0 0 0
0 0 0 0 0 0 0 0 0 0 0 0 0 0 0 0 0 0 0 0 0 0 0 0 0 0 0 0 0 0 0 0 0 0 0 0 0 0
0 0 0 0 0 0 0 0 0 0 0 0 0 0 0 0 0 0 0 0 0 0 0 0 0 0 0 0 0 0 0 0 0 0 0 0 0 0
0 0 0 0 0 0 0 0 0 0 0 0 0 0 0 0 0 0 0 0 0 0 0 0 0 0 0 0 0 0 0 0 0 0 0 0 0 0
0 0 0 0 0 0 0 0 0 0 0 0 0 0 0 0 0 0 0 0 0 0 0 0 0 0 0 0 0 0 0 0 0 0 0 0 0 0
0 0 0 0 0 0 0 0 0 0 0 0 0 0 0 0 0 0 0 0 0 0 0 0 0 0 0 0 0 0 0 0 0 0 0 0 0 0
Wind_Speed
5 6 5 5 5 5 6 6 7 9 9 7 6 6 6 6 8 8 9 11 13 13 13 14 14 14 15 15 15 16 16 15 14 14 13 13 13 14
5 6 6 5 5 5 5 6 7 8 9 7 7 8 8 7 9 9 9 12 11 12 12 13 14 14 14 14 14 14 13 13 13 13 13 13 13 13
6 6 7 7 6 6 5 5 6 7 10 9 8 8 10 10 9 9 9 9 8 10 12 13 14 14 14 13 13 13 13 12 12 12 12 12 13 14
6 7 7 6 7 7 6 6 6 7 9 11 9 8 10 10 11 11 9 8 8 10 12 13 14 14 13 12 13 12 11 11 11 12 11 12 12 13
6 7 7 8 8 7 8 7 7 7 8 9 10 8 8 8 10 10 10 8 8 9 11 11 12 13 12 12 12 11 11 11 11 11 12 11 12 12
6 7 7 7 8 9 8 8 8 8 8 8 9 8 8 8 8 8 9 8 8 8 9 10 11 12 12 11 11 10 10 11 11 11 12 12 12 13
7 7 7 8 9 9 8 9 9 8 8 8 9 9 8 8 8 8 9 9 9 7 8 8 8 7 7 8 8 9 10 11 11 12 12 12 12 12
7 7 7 7 8 10 11 11 11 10 10 9 9 10 11 10 9 9 9 10 9 5 8 9 7 7 7 6 9 11 11 11 12 12 12 11 11 12
7 7 6 7 8 8 10 11 10 11 12 11 11 11 12 11 11 11 10 10 10 8 8 9 7 8 7 7 11 11 11 11 11 11 12 11 12 12
7 8 8 8 8 10 10 10 10 9 10 9 10 11 11 11 11 11 12 12 11 7 6 8 8 8 8 7 9 11 11 11 11 12 12 12 13 13
7 7 8 8 10 12 11 10 10 9 10 12 14 14 15 15 13 9 9 8 8 6 5 6 7 8 8 7 7 10 11 11 12 12 12 12 13 12
6 7 8 10 12 13 10 10 11 10 10 10 10 11 11 11 12 9 8 8 7 7 4 6 6 7 7 5 5 6 7 10 12 12 11 11 12 8
6 6 6 11 13 14 13 9 11 12 10 9 9 8 8 7 7 7 7 7 7 7 5 6 6 6 6 7 6 5 5 6 7 8 9 11 11 8
7 6 7 12 14 14 11 11 14 11 7 7 7 7 7 7 7 7 7 7 7 8 8 7 6 6 7 8 7 5 6 6 6 6 6 9 9 10
7 10 12 13 13 10 10 12 9 6 6 6 7 7 7 7 7 6 6 6 7 6 6 7 7 7 7 7 7 7 7 6 6 6 7 7 6 6
7 8 10 11 9 9 8 7 5 5 6 6 7 7 6 7 6 6 6 6 6 5 4 6 6 7 7 7 7 7 6 6 6 7 7 7 6 6
7 6 5 5 5 5 5 5 5 5 5 5 6 6 6 6 6 5 5 5 5 6 6 5 5 5 6 6 6 6 6 6 6 7 7 7 7 6
7 5 5 5 6 6 6 6 5 5 5 6 6 6 6 6 6 5 5 5 6 6 6 6 5 5 4 3 4 6 6 6 7 7 7 7 8 7
5 4 5 5 6 6 5 6 6 5 5 5 6 6 6 6 6 6 5 5 5 6 6 5 5 4 5 6 4 3 6 6 7 7 6 7 8 8
4 5 5 5 5 5 5 6 6 5 5 5 5 5 5 5 5 5 5 5 6 6 6 5 4 4 5 6 6 7 8 7 6 7 7 7 8 10
4 5 5 5 5 5 5 5 6 6 6 5 5 6 5 5 5 5 5 6 6 5 6 5 5 6 5 4 5 6 6 8 9 7 8 7 8 7
5 5 5 5 5 5 5 5 5 5 6 5 5 5 5 5 6 6 5 5 5 5 6 6 5 4 4 4 6 8 8 8 9 11 10 9 6 6
5 5 5 5 5 5 5 5 6 6 5 5 5 5 5 5 5 5 5 5 5 5 5 5 4 4 4 4 6 7 9 9 7 6 6 8 10 12
Wind_Direction
323 320 315 311 308 305 300 293 287 290 289 291 294 298 301 298 305 300 298 306 300 297 298 298 297 299 297 293 292 291 291 291 292 291 290 292 292 293
320 318 316 312 307 306 300 296 287 283 284 294 296 303 305 299 303 299 298 300 296 299 299 298 299 299 297 296 296 296 296 294 294 294 293 293 294 294
322 320 320 318 313 312 306 303 299 291 285 291 295 301 302 300 299 297 296 296 297 299 301 300 298 297 297 297 298 298 297 297 296 295 295 297 298 297
325 323 320 318 315 313 309 306 301 299 293 294 298 301 300 302 300 297 296 294 295 298 298 299 297 295 294 296 296 296 298 301 302 300 298 300 300 300
320 319 318 318 315 314 311 308 305 302 297 293 296 300 299 302 301 298 298 296 297 298 294 293 295 297 297 296 293 294 297 298 300 302 301 299 299 299
318 317 316 314 313 312 310 309 308 306 301 296 294 298 298 304 304 304 303 302 299 298 294 295 293 291 292 294 291 291 293 296 297 299 299 300 301 299
314 313 312 311 312 309 307 307 306 302 301 300 299 299 301 308 306 306 300 302 297 296 301 297 293 290 291 289 288 295 299 299 298 297 297 296 298 299
310 308 306 301 305 307 305 304 303 299 300 298 298 299 303 304 304 301 299 299 296 303 302 296 296 290 292 292 296 297 297 299 301 301 301 301 302 301
304 304 303 305 303 305 305 303 302 300 296 294 293 295 300 304 303 299 295 293 290 302 299 289 293 292 296 295 300 301 301 302 302 305 305 303 303 303
301 302 302 306 309 309 307 304 302 301 302 299 295 296 298 300 299 296 294 290 286 285 293 287 295 294 299 294 297 299 299 304 307 306 304 303 304 304
303 302 301 302 307 309 304 301 300 301 305 302 299 298 300 302 302 298 296 294 292 292 301 290 296 303 296 288 296 302 303 305 307 307 306 307 306 303
302 299 298 301 305 307 303 300 299 302 304 305 302 303 301 300 302 294 291 289 292 291 305 299 295 307 297 291 304 309 306 305 305 305 306 310 313 308
301 302 304 307 307 309 306 301 300 304 300 298 298 299 301 301 302 300 295 285 284 283 299 302 292 295 286 293 298 303 308 311 309 304 303 307 311 311
297 298 301 306 308 309 308 307 308 307 298 295 295 298 301 302 303 303 300 292 283 283 294 296 283 287 288 287 290 302 308 310 309 308 310 308 306 306
294 296 301 306 306 305 305 306 307 302 298 295 295 298 302 302 302 301 303 298 287 283 285 289 285 284 281 280 288 296 305 307 309 311 312 310 308 305
298 299 301 302 301 301 300 302 299 298 297 293 295 299 304 305 304 306 306 309 300 295 294 296 290 284 280 280 281 289 297 298 307 310 309 305 303 299
305 301 299 300 297 298 299 300 299 298 296 297 297 299 301 302 304 307 302 301 295 299 307 311 304 291 282 280 277 282 294 300 305 312 310 304 301 299
311 298 297 296 296 298 299 299 297 296 297 296 294 296 298 300 301 301 298 296 296 299 303 311 316 309 291 273 264 282 294 304 309 310 304 301 301 303
301 288 289 291 293 295 295 294 295 295 294 289 289 292 294 295 296 298 300 299 298 299 302 305 308 309 308 309 313 314 306 305 304 302 299 298 295 300
290 286 285 286 287 288 290 291 294 296 293 291 291 290 290 291 291 294 296 298 299 300 301 301 303 303 294 298 300 301 303 296 299 300 303 301 292 295
289 286 285 286 286 285 286 287 288 288 289 289 287 287 286 286 286 288 290 292 289 291 296 300 307 303 287 278 278 287 301 309 304 297 301 301 302 300
285 285 286 285 286 283 282 282 283 283 284 282 283 283 284 283 282 283 286 289 288 289 291 295 304 304 294 284 288 296 304 313 311 304 293 287 294 300
283 284 285 285 282 282 280 278 280 280 281 280 281 282 283 282 281 281 282 282 286 290 294 299 305 305 298 291 292 297 303 309 310 313 306 308 302 295